Aiken, SC

2:52 AM EST on February 22, 2017 (GMT -0500)
Aiken Municipal

Weather History for KAIK - January, 2012

Change the Weather History Date:

Saturday, January 21, 2012

  Actual Average Record
Temperature  
Mean Temperature 56 °F -  
Max Temperature 60 °F 55 °F 69 °F (2015)
Min Temperature 53 °F 32 °F 28 °F (2011)
Degree Days  
Heating Degree Days 8    
Growing Degree Days 6 (Base 50)    
Moisture  
Dew Point 52 °F    
Average Humidity 86    
Maximum Humidity 100    
Minimum Humidity 67    
Precipitation  
Precipitation 0.00 in - - ()
Sea Level Pressure  
Sea Level Pressure 30.01 in    
Wind  
Wind Speed 10 mph (SSW)    
Max Wind Speed 16 mph    
Max Gust Speed 24 mph    
Visibility 9 miles    
Events Rain , Thunderstorm    
Averages and records for this station are not official NWS values.
T = Trace of Precipitation, MM = Missing Value Source: NWS Daily Summary

Daily Weather History Graph

Daily Weather History Graph

Search for Another Location

Airport or City:

Trip Planner

Search our weather history database for the weather conditions in past years. The results will help you decide how hot, cold, wet, or windy it might be!

Date:

Astronomy

Jan. 21, 2012 Rise Set
Actual Time 7:29 AM EST 5:46 PM EST
Civil Twilight 7:02 AM EST 6:13 PM EST
Nautical Twilight 6:32 AM EST 6:43 PM EST
Astronomical Twilight 6:02 AM EST 7:13 PM EST
Moon 5:57 AM EST (1/21) 4:22 PM EST (1/21)
Length of Visible Light 11h 10m
Length of Day
10h 17m
Waning Crescent, 3% of the Moon is Illuminated
Jan 21
Waning Crescent
Jan 23
New
Jan 30
First Quarter
Feb 7
Full
Feb 14
Last Quarter

Hourly Weather History & Observations

Time (EST) Temp. Dew Point Humidity Pressure Visibility Wind Dir Wind Speed Gust Speed Precip Events Conditions
12:15 AM 53.6 °F 53.6 °F 100% 30.06 in 10.0 mi SSE 9.2 mph - N/A Rain Light Rain
12:35 AM 53.6 °F 53.6 °F 100% 30.06 in 10.0 mi South 11.5 mph - N/A   Light Drizzle
12:55 AM 55.4 °F 55.4 °F 100% 30.05 in 10.0 mi South 9.2 mph - N/A Thunderstorm Overcast
1:15 AM 55.4 °F 51.8 °F 88% 30.05 in 10.0 mi South 11.5 mph - N/A   Overcast
1:35 AM 55.4 °F 51.8 °F 88% 30.05 in 10.0 mi SSW 10.4 mph 17.3 mph N/A   Overcast
1:55 AM 55.4 °F 51.8 °F 88% 30.06 in 10.0 mi South 12.7 mph 17.3 mph N/A Rain , Thunderstorm Rain
2:15 AM 55.4 °F 51.8 °F 88% 30.05 in 10.0 mi South 12.7 mph - N/A   Overcast
2:35 AM 55.4 °F 51.8 °F 88% 30.04 in 10.0 mi South 9.2 mph - N/A   Overcast
2:55 AM 55.4 °F 51.8 °F 88% 30.04 in 10.0 mi South 9.2 mph - N/A   Overcast
3:15 AM 55.4 °F 50.0 °F 82% 30.03 in 10.0 mi SSW 9.2 mph - N/A   Overcast
3:35 AM 55.4 °F 50.0 °F 82% 30.03 in 10.0 mi SSW 6.9 mph - N/A   Overcast
3:55 AM 55.4 °F 50.0 °F 82% 30.03 in 10.0 mi SW 6.9 mph - N/A   Overcast
4:15 AM 55.4 °F 50.0 °F 82% 30.02 in 10.0 mi SSW 9.2 mph - N/A   Overcast
4:35 AM 55.4 °F 50.0 °F 82% 30.01 in 10.0 mi SSW 10.4 mph - N/A   Overcast
5:15 AM 55.4 °F 48.2 °F 77% 30.01 in 10.0 mi SSW 8.1 mph - N/A   Mostly Cloudy
5:35 AM 55.4 °F 48.2 °F 77% 30.01 in 10.0 mi SSW 9.2 mph - N/A   Overcast
5:55 AM 57.2 °F 46.4 °F 67% 30.01 in 10.0 mi SSW 8.1 mph - N/A   Overcast
6:15 AM 57.2 °F 46.4 °F 67% 30.01 in 10.0 mi SSW 6.9 mph - N/A   Overcast
6:35 AM 57.2 °F 46.4 °F 67% 30.00 in 10.0 mi South 9.2 mph - N/A   Mostly Cloudy
6:55 AM 55.4 °F 46.4 °F 72% 30.00 in 10.0 mi SSW 9.2 mph - N/A   Mostly Cloudy
7:15 AM 57.2 °F 48.2 °F 72% 30.01 in 10.0 mi SSW 6.9 mph - N/A   Mostly Cloudy
7:35 AM 57.2 °F 48.2 °F 72% 30.01 in 10.0 mi SSW 9.2 mph - N/A   Overcast
7:55 AM 57.2 °F 48.2 °F 72% 30.02 in 10.0 mi SW 5.8 mph - N/A   Overcast
8:15 AM 55.4 °F 50.0 °F 82% 30.02 in 10.0 mi SSW 6.9 mph - N/A Rain Light Rain
8:35 AM 55.4 °F 50.0 °F 82% 30.02 in 10.0 mi SSW 4.6 mph - N/A   Overcast
8:55 AM 57.2 °F 50.0 °F 77% 30.03 in 10.0 mi SSW 8.1 mph - N/A   Overcast
9:15 AM 59.0 °F 50.0 °F 72% 30.03 in 10.0 mi SSW 11.5 mph 17.3 mph N/A   Mostly Cloudy
9:35 AM 59.0 °F 51.8 °F 77% 30.04 in 10.0 mi SW 12.7 mph 16.1 mph N/A Rain Light Rain
9:55 AM 55.4 °F 53.6 °F 94% 30.05 in 7.0 mi SW 12.7 mph - N/A Rain Rain
10:15 AM 55.4 °F 55.4 °F 100% 30.03 in 5.0 mi SSW 9.2 mph - N/A Rain Heavy Rain
10:55 AM 59.0 °F - N/A% 30.03 in 7.0 mi SSW 12.7 mph 20.7 mph N/A Rain Rain
11:15 AM 59.0 °F - N/A% 30.02 in 10.0 mi SW 13.8 mph 20.7 mph N/A Rain Light Rain
11:35 AM 60.8 °F - N/A% 30.02 in 10.0 mi SSW 16.1 mph 23.0 mph N/A Rain Rain
11:55 AM 59.0 °F 59.0 °F 100% 30.00 in 10.0 mi SW 11.5 mph - N/A Thunderstorm Mostly Cloudy
12:15 PM 60.8 °F 60.8 °F 100% 29.99 in 10.0 mi SW 10.4 mph 16.1 mph N/A Rain Light Rain
12:35 PM 60.8 °F 60.8 °F 100% 29.97 in 10.0 mi SSW 12.7 mph 17.3 mph N/A Thunderstorm Mostly Cloudy
12:55 PM 60.8 °F 60.8 °F 100% 29.96 in 10.0 mi SSW 9.2 mph - N/A Thunderstorm Overcast
1:15 PM 60.8 °F 60.8 °F 100% 29.96 in 10.0 mi SSW 10.4 mph - N/A Rain , Thunderstorm Light Thunderstorms and Rain
1:35 PM 60.8 °F 60.8 °F 100% 29.95 in 10.0 mi SSW 10.4 mph - N/A Thunderstorm Clear
1:55 PM 60.8 °F 60.8 °F 100% 29.95 in 5.0 mi SSW 10.4 mph - N/A Rain , Thunderstorm Thunderstorms and Rain
2:15 PM 59.0 °F - N/A% 30.00 in 2.0 mi West 13.8 mph 24.2 mph N/A Rain , Thunderstorm Heavy Thunderstorms and Rain
2:35 PM 59.0 °F - N/A% 29.99 in 10.0 mi WSW 13.8 mph - N/A Rain , Thunderstorm Thunderstorms and Rain
2:55 PM 59.0 °F - N/A% 30.00 in 7.0 mi SW 11.5 mph - N/A Rain , Thunderstorm Thunderstorms and Rain
3:15 PM 57.2 °F - N/A% 30.01 in 7.0 mi WSW 9.2 mph - N/A Rain , Thunderstorm Thunderstorms and Rain
3:35 PM 57.2 °F - N/A% 29.99 in 7.0 mi WSW 3.5 mph - N/A Rain , Thunderstorm Thunderstorms and Rain
3:55 PM 57.2 °F - N/A% 29.97 in 7.0 mi West 4.6 mph - N/A Rain , Thunderstorm Heavy Thunderstorms and Rain
4:15 PM 55.4 °F - N/A% 29.97 in 10.0 mi South 11.5 mph - N/A Rain , Thunderstorm Rain
4:35 PM 55.4 °F - N/A% 29.96 in 10.0 mi South 9.2 mph - N/A Thunderstorm Mostly Cloudy
4:55 PM 55.4 °F - N/A% 29.97 in 10.0 mi South 11.5 mph - N/A Thunderstorm Thunderstorm
5:35 PM 55.4 °F - N/A% 29.98 in 10.0 mi SSW 5.8 mph - N/A Thunderstorm Clear
5:55 PM 55.4 °F - N/A% 29.99 in 10.0 mi WSW 3.5 mph - N/A   Scattered Clouds
6:35 PM 55.4 °F - N/A% 30.00 in 7.0 mi SW 4.6 mph - N/A   Overcast
6:55 PM 55.4 °F - N/A% 30.01 in 4.0 mi WSW 4.6 mph - N/A   Haze
7:15 PM 55.4 °F - N/A% 30.03 in 5.0 mi WSW 5.8 mph - N/A   Haze
7:35 PM 55.4 °F - N/A% 30.03 in 4.0 mi WSW 5.8 mph - N/A   Haze
7:55 PM 55.4 °F - N/A% 30.04 in 5.0 mi West 5.8 mph - N/A   Haze
8:15 PM 55.4 °F - N/A% 30.05 in 7.0 mi West 8.1 mph - N/A   Overcast
8:35 PM 55.4 °F - N/A% 30.05 in 5.0 mi WNW 5.8 mph - N/A   Haze
8:55 PM 55.4 °F - N/A% 30.05 in 7.0 mi WNW 4.6 mph - N/A   Overcast
9:15 PM 55.4 °F - N/A% 30.06 in 5.0 mi West 5.8 mph - N/A   Haze
9:35 PM 55.4 °F - N/A% 30.07 in 4.0 mi WSW 3.5 mph - N/A   Haze
10:15 PM 55.4 °F - N/A% 30.08 in 10.0 mi Calm Calm - N/A   Overcast
10:35 PM 55.4 °F - N/A% 30.08 in 10.0 mi Calm Calm - N/A   Overcast
11:15 PM 55.4 °F - N/A% 30.09 in 7.0 mi Calm Calm - N/A   Overcast
11:35 PM 55.4 °F - N/A% 30.10 in 7.0 mi WSW 3.5 mph - N/A   Overcast
11:55 PM 55.4 °F - N/A% 30.10 in 5.0 mi West 3.5 mph - N/A   Haze